CDT,Max TemperatureF,Mean TemperatureF,Min TemperatureF,Max Dew PointF,MeanDew PointF,Min DewpointF,Max Humidity, Mean Humidity, Min Humidity, Max Sea Level PressureIn, Mean Sea Level PressureIn, Min Sea Level PressureIn, Max VisibilityMiles, Mean VisibilityMiles, Min VisibilityMiles, Max Wind SpeedMPH, Mean Wind SpeedMPH, Max Gust SpeedMPH,PrecipitationIn, CloudCover, Events, WindDirDegrees
2013-5-1,61,47,32,41,35,29,100,90,34,30.54,30.25,29.80,10,5,1,33,26,51,0.14,8,Rain-Snow-Thunderstorm,19
2013-5-2,55,44,32,34,30,22,100,74,29,30.69,30.57,30.48,10,7,1,24,17,34,0.00,7,Snow,355
2013-5-3,62,45,28,32,25,20,92,54,21,30.46,30.24,30.10,10,10,10,18,7,26,0.00,1,,345
2013-5-4,61,46,31,33,24,21,69,46,25,30.19,30.13,30.10,10,10,10,24,15,34,0.00,3,,2
2013-5-5,68,51,34,39,33,26,82,56,30,30.25,30.18,30.10,10,10,10,14,7,22,0.00,1,,1
2013-5-6,74,54,34,46,37,31,96,58,24,30.15,30.09,30.00,10,10,10,13,3,18,0.00,0,,121
2013-5-7,74,64,53,56,52,44,93,77,49,30.02,29.93,29.81,10,9,2,26,11,38,0.58,7,Rain-Thunderstorm,120
2013-5-8,77,65,52,56,53,49,97,74,43,29.95,29.89,29.83,10,10,8,23,8,30,0.02,4,Rain,50
2013-5-9,70,60,50,55,51,48,96,79,50,30.10,29.99,29.87,10,9,4,17,12,20,0.05,5,Rain,351
2013-5-10,75,61,46,52,48,43,96,67,32,30.14,30.10,30.04,10,9,6,14,7,18,0.00,1,,322
2013-5-11,70,59,48,46,35,22,80,46,18,30.35,30.25,30.11,10,10,9,20,12,28,0.00,1,,13
2013-5-12,81,61,40,50,42,34,82,54,23,30.24,30.11,30.01,10,10,10,14,4,16,0.00,1,,100
2013-5-13,96,71,45,56,45,38,93,53,13,30.03,29.96,29.86,10,10,10,16,4,22,0.00,0,,193
2013-5-14,100,80,59,56,43,35,65,31,11,29.85,29.75,29.64,10,10,10,20,8,31,T,0,,230
2013-5-15,89,75,60,55,49,42,68,41,27,29.78,29.74,29.70,10,10,10,15,10,24,0.01,0,,140
2013-5-16,85,70,54,59,56,52,97,73,33,29.89,29.80,29.72,10,8,3,31,9,40,0.27,2,Rain-Thunderstorm,154
2013-5-17,88,71,54,65,58,54,96,66,32,29.86,29.80,29.74,10,10,9,18,7,29,0.00,1,,158
2013-5-18,91,77,63,69,63,54,94,75,38,29.81,29.68,29.53,10,8,2,37,11,47,0.18,5,Rain-Thunderstorm,127
2013-5-19,80,68,56,58,53,45,97,62,32,29.68,29.60,29.54,10,10,10,23,13,36,T,2,Rain-Thunderstorm,314
2013-5-20,77,65,53,48,45,41,67,44,31,29.81,29.71,29.65,10,10,10,26,13,40,0.00,1,,290
2013-5-21,72,62,52,46,43,40,77,55,34,29.86,29.81,29.77,10,10,10,24,14,38,0.00,4,,308
2013-5-22,79,63,46,49,45,43,89,58,29,30.01,29.90,29.85,10,10,10,18,8,24,0.00,0,,335
2013-5-23,74,61,47,52,48,46,93,69,43,30.19,30.12,30.04,10,10,10,18,9,22,0.00,2,,70
2013-5-24,84,70,56,67,57,52,88,72,42,30.17,30.06,29.92,10,10,8,25,15,37,T,5,Rain,143
2013-5-25,93,80,66,67,60,56,84,59,30,30.04,29.89,29.77,10,10,7,22,15,34,T,1,Rain-Thunderstorm,159
2013-5-26,98,83,67,67,62,53,90,61,23,29.89,29.74,29.63,10,10,10,25,17,41,0.09,0,Rain-Thunderstorm,167
2013-5-27,90,76,62,69,66,61,90,72,50,29.69,29.59,29.49,10,10,10,22,15,31,0.00,1,,80
2013-5-28,84,71,57,68,60,43,100,76,30,29.72,29.63,29.50,10,9,1,18,9,25,T,4,,70
2013-5-29,86,71,55,65,60,45,100,75,38,29.61,29.50,29.33,10,8,1,33,14,48,0.75,4,Rain-Thunderstorm,172
2013-5-30,80,68,55,59,53,42,100,72,29,29.69,29.59,29.52,10,10,4,34,6,52,0.03,2,Rain-Thunderstorm,256
2013-5-31,83,68,52,52,43,27,86,49,13,29.83,29.72,29.67,10,10,10,17,8,28,0.00,0,,287